Regional Weather Roundup
Issued by NWS

Home | Current Version | Previous Version | Text Only | Print | Product List | Glossary On
Versions: 1 2 3 4 5 6 7 8 9 10 11 12 13 14 15 16 17 18 19 20 21 22 23 24 25 26 27 28 29 30 31 32 33 34 35 36 37 38 39 40 41 42 43 44 45 46 47 48 49 50
000
ASUS43 KTOP 271959
RWRKS

WEATHER ROUNDUP FOR KANSAS
NATIONAL WEATHER SERVICE GOODLAND KS
300 PM CDT WED AUG 27 2014

NOTE:  "FAIR" INDICATES FEW OR NO CLOUDS BELOW 12,000 FEET WITH NO
SIGNIFICANT WEATHER AND/OR OBSTRUCTIONS TO VISIBILITY.

KSZ001>006-013>018-027>032-041>047-272100-
NORTHWEST KANSAS

CITY           SKY/WX    TMP DP  RH WIND       PRES   REMARKS
GOODLAND       PTSUNNY   78  64  61 S13       30.10F
HAYS           MOSUNNY   81  64  57 SE18      30.07F
HILL CITY      CLOUDY    82  65  56 SE10      30.05F
RUSSELL        PTSUNNY   79  64  60 SE13      30.08F
$$

KSZ061>065-074>080-084>089-272100-
SOUTHWEST KANSAS

CITY           SKY/WX    TMP DP  RH WIND       PRES   REMARKS
DODGE CITY     PTSUNNY   81  66  60 S17G23    30.08F
ELKHART          N/A    N/A N/A N/A MISG        N/A
GARDEN CITY    PTSUNNY   85  67  54 SE20G29   30.06F
GREAT BEND     CLOUDY    79  64  61 E14       30.08F
LIBERAL        MOSUNNY   88  66  48 S18G25    30.09F
$$

KSZ066>073-081>083-090>101-272100-
SOUTHEAST KANSAS

CITY           SKY/WX    TMP DP  RH WIND       PRES   REMARKS
CHANUTE        MOSUNNY   96  63  33 S8        30.05F HX  97
COFFEYVILLE    PTSUNNY   95  68  41 S8        30.04F HX  99
HUTCHINSON     CLOUDY    87  67  51 SE10      30.08F
NEWTON         CLOUDY    88  63  42 S8        30.11F
PARSONS        PTSUNNY   96  65  35 VRB3      30.07F HX  98
WICHITA INTL   CLOUDY    91  64  40 VRB5      30.06F
WICHITA JABRA  PTSUNNY   89  64  43 CALM      30.06F
WINFIELD       MOSUNNY   93  65  39 VRB7      30.07F HX  95
$$

KSZ007>012-019>026-033>040-048>060-102>105-272100-
NORTHEAST KANSAS

CITY           SKY/WX    TMP DP  RH WIND       PRES   REMARKS
CONCORDIA      CLOUDY    79  74  84 E9        30.08F
EMPORIA        CLOUDY    93  65  39 N5        30.07F HX  95
LAWRENCE       SUNNY     91  72  53 E8        30.08F HX  98
MANHATTAN      CLOUDY    89  71  55 E10       30.06F HX  95
OLATHE IND     MOSUNNY   90  72  55 E12G17    30.09F HX  97
OLATHE EXE     SUNNY     86  72  62 E9        30.09F
SALINA         CLOUDY    86  65  49 NW6       30.07F
TOPEKA BILLARD MOSUNNY   87  72  60 NE10      30.07F
TOPEKA FORBES  PTSUNNY   88  69  53 E8        30.07F
$$



USA.gov is the U.S. government's official web portal to all federal, state and local government web resources and services.